Location: Kalberh�ni
(46.4610°N, 7.2453°E)
Time: 20:45:38
(UTC+00:00)

USA 229 - Pass Details

Date: 01 November 2021
Orbit: 946 x 1266 km, 63.4° (Epoch: 25 November)

Event Time Altitude Azimuth Distance (km) Brightness Sun altitude
Rises 18:50:44 0° 271° (W) 3,708 7.8 -27.1°
Reaches altitude 10° 18:53:47 10° 284° (WNW) 2,803 6.9 -27.6°
Maximum altitude 18:59:08 25° 339° (NNW) 1,991 5.3 -28.5°
Enters shadow 19:03:03 16° 21° (NNE) 2,530 5.5 -29.2°
